Back to catalog

FENGYUN 1C DEB

AliveSSO
NORAD 31477·DEBRIS·🇨🇳 China

Launched May 10, 1999 from Taiyuan Satellite Launch Center

Loading…

Next Passes (next 24 hours)

TLE

FreshSource: Space-Track

Epoch: Sep 13, 2026, 09:45 UTC

1 31477U 99025BVR 26256.40668752  .00000354  00000-0  24271-3 0  9997
2 31477  98.9079 245.0083 0109351 343.7532  16.0139 14.03096238992550

Track FENGYUN 1C DEB in real time with AllMySat

Download on the App Store